Location: Songkhla
(7.2000°N, 100.6000°E)
Time: 07:55:14
(UTC+07:00)

Centaur AC-116 - Pass Details

Date: 16 April 2026
Orbit: 324 x 18886 km, 26.9° (Epoch: 17 May)

Event Time Altitude Azimuth Distance (km) Brightness Sun altitude
Rises 20:09:04 0° 276° (W) 2,156 7.2 -25.8°
Reaches altitude 10° 20:10:33 10° 264° (W) 1,508 5.9 -26.1°
Enters shadow 20:12:37 31° 217° (SW) 1,036 4.3 -26.6°
